Location: Vinland
(47.7731°N, 122.6974°W)
Time: 00:08:36
(UTC+00:00)

Tiros 1 - Pass Details

Date: 28 March 2023
Orbit: 627 x 660 km, 48.4° (Epoch: 28 May)

Event Time Altitude Azimuth Distance (km) Brightness Sun altitude
Exits shadow 11:20:40 16° 144° (SE) 1,683 9.2 -25.2°
Maximum altitude 11:21:08 17° 137° (SE) 1,672 9.3 -25.2°
Drops below altitude 10° 11:24:07 10° 98° (E) 2,075 10.3 -24.8°
Sets 11:27:13 0° 78° (ENE) 2,992 11.7 -24.3°
